Hourly Data Report for October 08, 2014

All times are specified in Local Standard Time (LST). Add 1 hour to adjust for Daylight Saving Time where and when it is observed.

HALL BEACH A
NUNAVUT

68°46'33.000" N
81°14'33.000" W
9.10 m
2402354
71293
YUX

Download Data

Hourly Data (October 2014)
Hourly Data Report for October 8, 2014
Temp Definition
°C
Dew Point Temp Definition
°C
Rel Hum Definition
%
Wind Dir Definition
10's deg

Wind Spd Definition
km/h
Visibility Definition
km
Stn Press Definition
kPa
Hmdx Definition


Wind Chill Definition


Weather Definition


TIME
00:00 Legend Double Dagger -2.9 -4.8 87 6 22 16.1 102.60   -9 LegendNANA
01:00 Legend Double Dagger -2.9 -5.0 86 6 24 16.1 102.59   -10 LegendNANA
02:00 Legend Double Dagger -2.9 -4.9 86 6 26 16.1 102.57   -10 LegendNANA
03:00 Legend Double Dagger -3.0 -4.7 88 7 26 16.1 102.55   -10 LegendNANA
04:00 Legend Double Dagger -3.2 -5.1 87 6 26 16.1 102.54   -10 LegendNANA
05:00 Legend Double Dagger -3.1 -5.4 84 5 28 16.1 102.54   -10 LegendNANA
06:00 Legend Double Dagger -3.2 -5.7 83 5 22 16.1 102.55   -10 LegendNANA
07:00 Legend Double Dagger -3.0 -4.6 89 5 21 16.1 102.55   -9 LegendNANA
08:00 Legend Double Dagger -3.3 -5.2 87 4 18 16.1 102.55   -9 LegendNANA
09:00 Legend Double Dagger -3.2 -5.4 85 4 15 16.1 102.52   -8 LegendNANA
10:00 Legend Double Dagger -3.5 -5.2 88 3 15 16.1 102.51   -9 LegendNANA
11:00 Legend Double Dagger -3.1 -5.1 86 2 18 16.1 102.49   -9 LegendNANA
12:00 Legend Double Dagger -3.4 -5.4 86 1 17 16.1 102.50   -9 LegendNANA
13:00 Legend Double Dagger -3.2 -5.5 84 1 21 16.1 102.50   -9 LegendNANA
14:00 Legend Double Dagger -3.7 -6.0 84 4 21 16.1 102.48   -10 LegendNANA
15:00 Legend Double Dagger -4.0 -5.7 88 1 22 16.1 102.48   -11 LegendNANA
16:00 Legend Double Dagger -4.1 -5.7 89 1 17 16.1 102.48   -10 LegendNANA
17:00 Legend Double Dagger -4.7 -6.2 89 1 22 16.1 102.44   -12 LegendNANA
18:00 Legend Double Dagger -5.0 -6.3 91 1 22 16.1 102.44   -12 LegendNANA
19:00 Legend Double Dagger -5.0 -6.5 89 2 22 16.1 102.44   -12 LegendNANA
20:00 Legend Double Dagger -5.0 -6.3 91 36 18 16.1 102.40   -11 LegendNANA
21:00 Legend Double Dagger -5.6 -6.7 92 35 21 16.1 102.37   -12 LegendNANA
22:00 Legend Double Dagger -7.3 -7.7 97 35 21 4.8 102.37   -15 Fog
23:00 Legend Double Dagger -7.2 -7.7 96 34 22 9.7 102.32   -15 Fog

Notes on Data Quality.

Legend

  • E = Estimated
  • M = Missing
  • NA = Not Available
  • ‡ = Partner data that is not subject to review by the National Climate Archives
Date modified: